Location: Lucerne Valley
(34.4439°N, 116.9669°E)
Time: 02:26:42
(UTC-08:00)

Vanguard 2 Rocket - Visible Passes

Search period start: 23 February 2018 00:00
Search period end: 05 March 2018 00:00
Orbit: 555 x 3327 km, 32.9° (Epoch: 22 February)

Date Brightness Start Highest point End Pass type
(mag) Time Alt. Az. Time Alt. Az. Time Alt. Az.
23 Feb 8.7 04:23:11 10° SSW 04:29:02 35° SSE 04:29:02 35° SSE visible
23 Feb 10.1 06:34:20 10° WSW 06:34:52 12° WSW 06:34:52 12° WSW visible
23 Feb 10.4 09:15:22 30° ESE 09:15:22 30° ESE 09:23:10 10° E visible
23 Feb 9.4 11:21:12 65° SSW 11:21:12 65° SSW 11:40:32 10° SE visible
23 Feb 10.1 13:27:02 20° W 13:38:07 33° SW 13:53:04 10° SSE visible
24 Feb 8.9 03:25:48 10° S 03:31:29 23° SE 03:33:16 22° ESE visible
24 Feb 9.1 05:35:25 10° SW 05:39:07 32° SW 05:39:07 32° SW visible
24 Feb 10.9 08:19:29 13° E 08:19:29 13° E 08:20:40 10° E visible
24 Feb 9.7 10:25:20 53° SE 10:25:20 53° SE 10:39:25 10° ESE visible
24 Feb 9.7 12:31:09 38° WSW 12:36:48 43° SW 12:54:00 10° SSE visible
25 Feb 9.3 02:30:41 10° SE 02:32:39 11° SE 02:34:49 10° ESE visible
25 Feb 8.3 04:36:55 10° SW 04:43:20 48° SSE 04:43:20 48° SSE visible
25 Feb 10.1 06:48:50 10° WSW 06:49:10 12° WSW 06:49:10 12° WSW visible
25 Feb 10.3 09:29:31 31° ESE 09:29:31 31° ESE 09:37:35 10° ESE visible
25 Feb 9.5 11:35:21 53° SSW 11:35:21 53° SSW 11:54:03 10° SE visible
25 Feb 10.3 13:41:11 15° W 13:51:39 23° SW 14:04:33 10° S visible
26 Feb 8.4 03:38:54 10° SSW 03:45:06 34° SE 03:47:31 30° ESE visible
26 Feb 9.1 05:49:47 10° WSW 05:53:21 32° WSW 05:53:21 32° WSW visible
26 Feb 10.9 08:33:45 13° ESE 08:33:45 13° ESE 08:35:13 10° ESE visible
26 Feb 9.8 10:39:35 49° SSE 10:39:35 49° SSE 10:53:16 10° SE visible
26 Feb 10.0 12:45:26 29° WSW 12:50:32 33° SW 13:06:21 10° SSE visible
27 Feb 8.8 02:41:42 10° S 02:46:09 19° SE 02:51:40 11° E visible
27 Feb 8.1 04:51:03 10° WSW 04:57:30 60° S 04:57:30 60° S visible
27 Feb 10.3 09:43:52 30° SE 09:43:52 30° SE 09:51:44 10° ESE visible
27 Feb 9.8 11:49:43 42° SSW 11:49:43 42° SSW 12:06:58 10° SSE visible
27 Feb 10.6 13:56:40 10° WSW 14:05:18 14° SW 14:13:42 10° SSW visible
28 Feb 8.0 03:52:41 10° SW 03:59:00 47° SSE 04:01:37 39° ESE visible
28 Feb 9.2 06:04:18 10° W 06:07:27 29° WSW 06:07:27 29° WSW visible
28 Feb 10.9 08:48:11 13° ESE 08:48:11 13° ESE 08:49:36 10° ESE visible
28 Feb 9.9 10:54:02 41° SSE 10:54:02 41° SSE 11:06:38 10° SE visible
28 Feb 10.2 12:59:53 21° WSW 13:04:16 23° SW 13:17:33 10° S visible
01 Mar 8.2 02:54:46 10° SSW 02:59:52 30° SE 03:05:41 15° E visible
01 Mar 8.0 05:05:26 10° WSW 05:11:30 64° SW 05:11:30 64° SW visible
01 Mar 10.4 09:58:21 27° SE 09:58:21 27° SE 10:05:29 10° SE visible
01 Mar 10.0 12:04:12 31° SSW 12:04:12 31° SSW 12:19:04 10° SSE visible
02 Mar 7.7 04:06:50 10° WSW 04:13:12 61° SSE 04:15:33 48° ESE visible
02 Mar 9.4 06:18:54 10° W 06:21:22 24° W 06:21:22 24° W visible
02 Mar 10.9 09:02:41 12° ESE 09:02:41 12° ESE 09:03:41 10° ESE visible
02 Mar 10.1 11:08:32 32° S 11:08:32 32° S 11:19:22 10° SSE visible
02 Mar 10.5 13:14:23 13° WSW 13:18:09 14° SW 13:26:07 10° SSW visible
03 Mar 7.7 03:08:32 10° SW 03:13:51 44° SSE 03:19:32 20° E visible
03 Mar 8.2 05:19:58 10° W 05:25:21 58° WSW 05:25:21 58° WSW visible
03 Mar 10.5 10:12:51 23° SSE 10:12:51 23° SSE 10:18:43 10° SE visible
03 Mar 10.4 12:18:42 21° SW 12:18:42 21° SW 12:29:54 10° S visible
04 Mar 7.5 04:21:15 10° WSW 04:27:36 74° SSE 04:29:19 60° ESE visible
04 Mar 9.7 06:33:32 10° W 06:35:08 19° W 06:35:08 19° W visible
04 Mar 11.0 09:17:10 10° SE 09:17:10 10° SE 09:17:19 10° SE visible
04 Mar 10.4 11:23:00 23° S 11:23:00 23° S 11:31:13 10° SSE visible
